Location: Luz Observatory
(34.5000°N, 117.2833°W)
Time: 21:50:33
(UTC-07:00)

HST - Visible Passes

Search period start: 30 October 2014 00:00
Search period end: 08 November 2014 23:00
Orbit: 546 x 550 km, 28.5° (Epoch: 30 October)

Date Brightness Start Highest point End Pass type
(mag) Time Alt. Az. Time Alt. Az. Time Alt. Az.
30 Oct 1.9 18:44:41 10° WSW 18:48:31 35° S 18:51:55 13° ESE visible
30 Oct 3.2 20:25:56 10° WSW 20:27:27 19° SW 20:27:27 19° SW visible
31 Oct 2.0 18:37:18 10° WSW 18:41:09 36° S 18:45:00 10° ESE visible
31 Oct 3.1 20:18:42 10° WSW 20:20:35 20° SW 20:20:35 20° SW visible
01 Nov 2.0 18:29:55 10° WSW 18:33:45 35° S 18:37:35 10° ESE visible
01 Nov 3.0 20:11:31 10° WSW 20:13:46 20° SW 20:13:46 20° SW visible
02 Nov 2.2 17:22:34 10° WSW 17:26:21 33° S 17:30:08 10° ESE visible
02 Nov 3.0 19:04:25 10° WSW 19:07:00 18° SSW 19:07:00 18° SSW visible
03 Nov 2.4 17:15:15 10° WSW 17:18:56 30° S 17:22:38 10° SE visible
03 Nov 3.2 18:57:28 10° SW 18:59:50 15° SSW 19:00:19 14° SSW visible
04 Nov 3.5 18:50:54 10° SW 18:52:20 12° SSW 18:53:43 10° S visible
